Location: Lake_James_State_Park
(35.7270°N, 81.9020°W)
Time: 07:43:38
(UTC-04:00)

Daily predictions for brighter satellites

Satellite Brightness Start Highest point End
(mag) Time Altitude Azimuth Time Altitude Azimuth Time Altitude Azimuth
Sakura Rocket 4.3 20:24:59 10° SW 20:29:33 29° S 20:33:11 10° ESE
Cosmos 2221 3.1 20:28:00 10° SSW 20:32:13 62° W 20:36:27 10° N
NOSS 2-1 (C) 3.6 20:31:30 10° SW 20:35:05 66° WNW 20:38:53 10° NNE
NOSS 2-1 (D) 3.7 20:32:30 10° SW 20:36:04 62° WNW 20:39:52 10° NNE
Cosmos 1340 2.7 20:33:44 10° S 20:37:27 60° E 20:41:12 10° NNE
Cosmos 2228 Rocket 4.5 20:38:03 10° SE 20:41:04 18° E 20:44:06 10° NE
H-2A R/B 4.5 20:38:08 10° SSW 20:41:33 35° W 20:45:01 10° NNW
SPOT 3 Rocket 4.5 20:37:02 10° S 20:42:04 52° W 20:47:07 10° NNW
SL-24 R/B - RUBIN 2 3.8 20:39:24 10° NNW 20:43:37 49° ENE 20:47:54 10° SE
HJ-1C 3.3 20:40:20 10° SSE 20:43:40 89° ENE 20:47:02 10° N
Thor Agena Rocket 3.7 20:38:35 10° NNE 20:43:43 53° E 20:48:52 10° S
In-Cosmos 22 Rocket 4.1 20:38:35 10° N 20:44:03 75° E 20:49:22 10° SSE
ATLAS 2AS CENTAUR R/B 3.7 20:38:44 10° NNW 20:45:58 38° NE 20:52:15 12° ESE
ASTRO E2 4.4 20:46:18 10° SSW 20:49:02 18° SSE 20:51:08 13° ESE
OAO 2 Rocket 3.4 20:44:56 10° W 20:50:10 73° S 20:54:42 13° ESE
Cosmos 1805 Rocket 3.5 20:48:34 10° N 20:52:56 89° W 20:57:15 10° S
Spot 2 Rocket 4.5 20:49:02 10° SE 20:53:17 29° ENE 20:57:37 10° N
Cosmos 1825 4.2 20:52:41 10° NE 20:54:10 12° ENE 20:54:53 11° E
Cosmos 1328 Rocket 4.0 20:50:53 10° SSE 20:54:59 40° E 20:59:08 10° NNE
Cosmos 2154 Rocket 4.0 20:50:08 10° S 20:56:23 78° E 21:02:37 10° N
H-2A R/B 2.9 20:53:21 10° W 20:56:26 16° SW 20:58:09 10° S
ATLAS CENTAUR R/B 0.9 20:53:26 10° SSW 20:57:02 72° ESE 21:00:46 10° NE
SL-8 R/B 3.6 20:52:30 10° SW 20:57:16 77° SE 21:02:04 10° NE
SL-16 R/B 3.7 21:01:32 15° ESE 21:02:10 15° E 21:05:15 10° ENE
Meteor 2-15 4.4 20:56:47 10° N 21:02:56 83° E 21:09:02 10° S
Timation 1 Rocket 4.3 20:59:01 10° NNW 21:05:00 72° ENE 21:10:42 11° SSE
Resurs 01 Rocket 1.9 21:02:01 12° SE 21:06:00 47° ENE 21:10:16 10° N
SJ-6B 3.5 21:05:50 10° S 21:09:48 56° W 21:13:44 10° NNW
Cosmos 1470 Rocket 4.3 21:07:01 10° NNE 21:11:02 33° ENE 21:13:19 21° SE
Haruka 4.2 21:04:51 10° W 21:13:15 37° SSW 21:15:51 18° SSE
Meteor 2-3 Rocket 3.8 21:09:27 10° N 21:15:01 60° E 21:20:11 12° SSE
Cosmos 1939 Rocket 2.7 21:13:06 13° SSE 21:16:31 74° ENE 21:20:24 10° N
Cosmos 2341 Rocket 4.0 21:13:22 10° S 21:19:44 80° E 21:26:04 10° N
Cosmos 1869 4.2 21:19:48 26° ESE 21:20:27 27° E 21:23:53 10° NNE
NOSS 0 Rocket 3.8 21:15:10 10° SSW 21:21:19 80° ESE 21:27:31 10° NNE
Cosmos 962 Rocket 4.4 21:15:27 10° S 21:21:34 86° E 21:27:45 10° N
Cosmos 2218 Rocket 4.3 21:18:37 10° SSE 21:24:35 45° E 21:30:37 10° NNE
Aureole 2 4.3 21:24:10 10° SSW 21:27:15 68° WNW 21:30:11 10° NNE
Cosmos 1980 3.6 21:22:23 10° SSW 21:28:04 80° ESE 21:33:45 10° NNE
USA 267 4.0 21:25:53 10° ENE 21:31:16 27° SE 21:36:39 10° S
Cosmos 1666 Rocket 4.5 21:29:16 10° NNW 21:33:35 49° W 21:37:52 10° SSW
Cosmos 2366 rocket 4.1 21:31:03 15° SSE 21:36:04 50° E 21:42:06 10° NNE
H-2A R/B 3.2 21:36:33 22° ENE 21:37:10 23° ENE 21:41:00 10° NNE
Cosmos 1408 2.8 21:34:16 10° N 21:37:50 48° E 21:38:11 46° E
ERS-2 3.8 21:35:25 10° SSW 21:38:41 31° W 21:42:00 10° NW
Cosmos 220 Rocket 3.9 21:34:31 10° NNW 21:38:51 88° ENE 21:40:44 33° SSE
Cosmos 2333 Rocket 3.1 21:33:29 10° SW 21:38:58 50° WNW 21:44:28 10° N
Resurs 1-3 3.9 21:35:47 15° S 21:39:20 67° WSW 21:43:42 10° NNW
Cosmos 1933 Rocket 3.5 21:35:22 10° N 21:39:42 59° E 21:41:04 39° SE
TRAILBLAZER 4.5 21:35:27 10° SSW 21:39:59 85° ESE 21:44:40 10° NNE
Cosmos 1371 Rocket 4.0 21:34:57 10° S 21:40:08 59° ESE 21:45:24 10° NNE
Cosmos 1151 Rocket 2.9 21:35:54 10° S 21:40:09 90° E 21:44:26 10° N
Cosmos 1455 3.4 21:37:00 10° SSW 21:40:38 42° W 21:44:19 10° N
USA 186 3.4 21:40:40 17° SW 21:41:30 20° W 21:43:16 10° NW
SL-8 Rocket 3.9 21:38:48 10° S 21:45:07 83° E 21:51:25 10° N
Cosmos 1844 Rocket 3.8 21:40:05 10° NW 21:45:21 40° WSW 21:50:34 10° S
YAOGAN 6 4.3 21:48:32 12° SSW 21:51:27 30° W 21:54:42 10° NNW
Cosmos 2219 Rocket 4.0 21:48:37 10° WSW 21:53:37 32° WNW 21:58:39 10° N
Cosmos 2237 Rocket 2.6 21:49:53 10° SSW 21:55:27 65° WNW 22:01:03 10° NNE
Cosmos 2056 Rocket 3.4 21:57:10 16° S 22:01:35 75° ESE 22:07:00 10° NNE
Genesis I 3.4 22:00:40 10° NW 22:04:43 64° WSW 22:05:02 61° SSW
Terra 4.2 22:09:24 10° NE 22:09:24 10° NE 22:09:33 10° NE
Cosmos 2278 Rocket 2.1 22:02:27 10° NNW 22:08:09 85° WSW 22:09:51 47° SSE
Cosmos 2098 Rocket 3.1 22:07:14 43° S 22:08:46 85° W 22:12:48 10° N
Cosmos 864 Rocket 4.5 22:12:08 19° SSW 22:16:37 78° W 22:22:46 10° N
Cosmos 1624 Rocket 4.1 22:13:55 13° SSW 22:18:38 71° WNW 22:23:49 10° NNE
Cosmos 1190 Rocket 4.1 22:19:54 10° N 22:24:56 62° ENE 22:24:56 62° ENE
ATLAS 2A CENTAUR R/B 3.9 22:08:47 10° WSW 22:25:49 44° S 22:27:45 41° SSE
SPOT 5 4.1 22:28:34 28° NNE 22:28:34 28° NNE 22:31:11 10° N
Cosmos 1825 3.6 22:26:23 10° NNW 22:29:46 34° W 22:29:46 34° W
ATLAS 2AS CENTAUR R/B 3.6 22:29:48 10° NW 22:37:05 46° WSW 22:39:44 33° SSW
Resurs 01 Rocket 4.4 22:40:35 10° WSW 22:42:41 13° W 22:44:47 10° WNW
GEOS 3 Rocket 3.7 22:37:23 10° NNE 22:42:44 76° NW 22:43:44 58° WSW
SL-16 R/B 2.6 22:43:11 33° SW 22:45:39 62° WNW 22:51:16 10° NNE
ARGOS 3.6 22:48:16 54° WSW 22:48:34 54° W 22:53:49 10° NNW
Cosmos 2344 3.4 22:41:55 10° SSW 22:49:36 83° ESE 22:57:40 10° NNE
MetOp-B 4.5 22:51:07 59° W 22:51:07 59° W 22:56:23 10° NNW
Cosmos 1943 Rocket 4.5 22:53:15 10° NNE 22:54:37 12° NE 22:54:37 12° NE
Cosmos 1821 Rocket 4.1 22:57:37 67° NE 22:57:37 67° NE 23:03:09 10° N
Cosmos 1727 Rocket 4.5 22:51:13 10° NNW 22:57:11 53° W 22:58:13 48° SW
NOSS 3-4 (A) 3.7 23:00:34 10° NNW 23:07:47 88° WSW 23:07:53 87° SSW
NOSS 3-4 (C) 3.7 23:00:40 10° NNW 23:07:53 89° SW 23:07:59 88° S
SPOT 1/Viking Rocket 4.4 23:09:38 47° NNW 23:09:38 47° NNW 23:13:18 10° NNW
ERS-1 Rocket 4.0 23:10:08 41° WNW 23:10:08 41° WNW 23:14:00 10° NNW
USA 267 3.4 23:08:03 10° NE 23:14:32 71° NW 23:21:02 10° SW
H-2A R/B 3.4 23:17:10 33° WNW 23:17:10 33° WNW 23:20:56 10° NNW
Cosmos 2369 Rocket 3.9 23:22:18 10° N 23:25:18 25° NNE 23:25:18 25° NNE
CZ-4C R/B 3.9 23:44:41 26° N 23:44:41 26° N 23:47:21 10° NNE
Terra 4.0 23:48:17 22° NNW 23:48:17 22° NNW 23:50:00 10° NNW
USA 234 4.4 23:45:38 32° NE 23:45:51 33° NNE 23:51:31 10° NNW
